Regional Weather Roundup
Issued by NWS

Home | Current Version | Previous Version | Text Only | Print | Product List | Glossary Off
Versions: 1 2 3 4 5 6 7 8 9 10 11 12 13 14 15 16 17 18 19 20 21 22 23 24 25 26 27 28 29 30 31 32 33 34 35 36 37 38 39 40 41 42 43 44 45 46 47 48 49 50

000
ASUS43 KBIS 252020
RWRND

NORTH DAKOTA REGIONAL WEATHER ROUNDUP
NATIONAL WEATHER SERVICE BISMARCK ND
200 PM CST TUE NOV 25 2014

NOTE: "FAIR" INDICATES FEW OR NO CLOUDS BELOW 12,000 FEET WITH NO
SIGNIFICANT WEATHER AND/OR OBSTRUCTIONS TO VISIBILITY.


NDZ001>003-009>011-017-252100-
NORTHWEST NORTH DAKOTA

CITY           SKY/WX    TMP DP  RH WIND       PRES   REMARKS
WILLISTON      CLOUDY    36  30  79 NW14      29.68R
MINOT          SNOW      29  26  89 E14       29.71S VSB 1/4 WCI  18
MINOT AFB      MIX PCPN  27  27 100 E16       29.72R VSB 1/4 WCI  14
$$

NDZ018>021-031>035-040>046-252100-
SOUTHWEST NORTH DAKOTA

CITY           SKY/WX    TMP DP  RH WIND       PRES   REMARKS
BISMARCK       SNOW      32  30  92 S12       29.71F VSB 1/2
DICKINSON      CLOUDY    35  32  88 W17       29.65S
GARRISON         N/A     31  30  96 S8        29.67F
HETTINGER ARPT CLOUDY    35  32  88 W15       29.70S
$$

NDZ004>008-012>016-024-026-027-054-252100-
NORTHEAST NORTH DAKOTA

CITY           SKY/WX    TMP DP  RH WIND       PRES   REMARKS
GRAND FORKS    CLOUDY    22  15  75 NE5       29.93F WCI  16
GRND FRKS AFB  CLOUDY    21  16  79 E7        29.93S WCI  13
DEVILS LAKE    CLOUDY    21  10  63 E13G18    29.82S WCI   9
$$

NDZ022-023-025-028>030-036>039-047>053-252100-
SOUTHEAST NORTH DAKOTA

CITY           SKY/WX    TMP DP  RH WIND       PRES   REMARKS
FARGO          CLOUDY    27  19  72 SE9       29.92F WCI  18
JAMESTOWN      CLOUDY    32  22  66 SE13      29.80F
$$



USA.gov is the U.S. government's official web portal to all federal, state and local government web resources and services.